1500152400.84,33491,17.13,73998.5,-0.75,-1.75,-1.51,0,*68
1500152402.05,33492,17.13,74002.5,-0.75,-1.75,-1.51,0,*6B
1500152403.27,33493,17.13,73998.3,-0.75,-1.75,-1.51,0,*6A
1500152404.49,33494,17.13,73998.0,-0.75,-1.71,-1.51,0,*69
1500152405.73,33495,17.13,73992.5,-0.75,-1.95,-1.63,0,*63
1500152406.97,33496,17.13,73994.0,-0.75,-1.87,-1.59,0,*6A
1500152408.18,33497,17.13,73998.8,-0.75,-1.75,-1.51,0,*6E
1500152409.37,33498,17.13,73998.5,-0.77,-1.79,-1.55,0,*6B
1500152410.62,33499,17.13,73994.0,-0.75,-1.71,-1.47,0,*63
1500152411.83,33500,17.13,74002.0,-0.75,-1.75,-1.51,0,*61
1500152413.08,33501,17.13,74000.0,-0.75,-1.71,-1.47,0,*63
1500152414.32,33502,17.19,74002.3,-0.75,-1.83,-1.51,0,*6A
1500152415.56,33503,17.13,74000.3,-0.75,-1.63,-1.47,0,*62
1500152416.8,33504,17.13,74000.0,-0.75,-1.63,-1.47,0,*65
1500152418.01,33505,17.13,73998.0,-0.73,-1.59,-1.47,0,*6B
1500152419.26,33506,17.13,73996.8,-0.75,-1.71,-1.47,0,*64
1500152420.5,33507,17.13,74000.0,-0.75,-1.63,-1.47,0,*66
1500152421.71,33508,17.13,73996.0,-0.75,-1.63,-1.51,0,*6E
1500152422.92,33509,17.13,73996.5,-0.73,-1.63,-1.47,0,*6E
1500152424.14,33510,17.13,74000.8,-0.73,-1.71,-1.47,0,*65
1500152425.35,33511,17.19,74004.0,-0.73,-1.63,-1.47,0,*67
1500152426.57,33512,17.13,73998.8,-0.73,-1.71,-1.47,0,*67
1500152427.78,33513,17.13,73996.3,-0.73,-1.63,-1.43,0,*61
1500152428.97,33514,17.13,74002.3,-0.73,-1.71,-1.51,0,*66
1500152430.16,33515,17.13,74002.3,-0.73,-1.71,-1.51,0,*67
1500152431.35,33516,17.13,73996.8,-0.73,-1.71,-1.51,0,*64
1500152432.54,33517,17.13,74002.8,-0.73,-1.63,-1.51,0,*66
1500152433.72,33518,17.13,74004.5,-0.73,-1.63,-1.51,0,*69
1500152434.91,33519,17.13,74000.8,-0.73,-1.63,-1.51,0,*68
1500152436.12,33520,17.13,74000.0,-0.73,-1.63,-1.47,0,*65
1500152437.3,33521,17.13,74002.5,-0.73,-1.63,-1.51,0,*63
1500152438.49,33522,17.13,74002.3,-0.73,-1.63,-1.51,0,*60
1500152439.68,33523,17.13,74004.0,-0.73,-1.71,-1.51,0,*62
1500152440.87,33524,17.13,74004.3,-0.73,-1.71,-1.51,0,*65
1500152442.1,33525,17.13,74000.3,-0.71,-1.59,-1.47,0,*6B
1500152443.28,33526,17.13,74006.0,-0.73,-1.59,-1.51,0,*6D
1500152444.47,33527,17.13,74004.3,-0.73,-1.63,-1.51,0,*65
1500152445.69,33528,17.13,74000.5,-0.73,-1.71,-1.47,0,*6E
1500152446.92,33529,17.13,74002.0,-0.71,-1.79,-1.43,0,*61
1500152448.16,33530,17.13,73996.5,-0.71,-1.79,-1.47,0,*6D
1500152449.35,33531,17.13,73994.8,-0.73,-1.75,-1.51,0,*65
1500152450.58,33532,17.13,73996.3,-0.71,-1.59,-1.47,0,*6D
1500152451.81,33533,17.13,73994.5,-0.71,-1.59,-1.47,0,*6C
1500152453.05,33534,17.13,73994.8,-0.71,-1.67,-1.47,0,*66
1500152454.26,33535,17.13,73994.0,-0.71,-1.59,-1.51,0,*6D
1500152455.45,33536,17.13,73996.0,-0.73,-1.63,-1.51,0,*65
1500152456.68,33537,17.19,73994.3,-0.71,-1.59,-1.43,0,*6C
1500152457.91,33538,17.13,73992.5,-0.71,-1.59,-1.43,0,*63
1500152459.15,33539,17.13,73992.3,-0.71,-1.67,-1.43,0,*6F
1500152460.34,33540,17.13,73994.8,-0.73,-1.71,-1.51,0,*67
1500152461.58,33541,17.13,73996.5,-0.71,-1.67,-1.47,0,*64
1500152462.81,33542,17.13,74000.0,-0.71,-1.59,-1.47,0,*6A
1500152464.05,33543,17.13,73998.8,-0.71,-1.59,-1.47,0,*6B
1500152465.26,33544,17.13,73998.5,-0.71,-1.67,-1.55,0,*62
1500152466.49,33545,17.13,73996.3,-0.71,-1.67,-1.47,0,*60
1500152467.69,33546,17.13,73996.8,-0.73,-1.71,-1.51,0,*61
1500152468.9,33547,17.13,74000.3,-0.73,-1.67,-1.47,0,*60
1500152470.14,33548,17.13,73998.0,-0.71,-1.71,-1.47,0,*6A
1500152471.38,33549,17.13,73998.8,-0.71,-1.67,-1.47,0,*6C
1500152472.61,33550,17.19,74000.0,-0.71,-1.59,-1.47,0,*69
1500152473.85,33551,17.19,74002.0,-0.71,-1.67,-1.43,0,*61
1500152475.1,33552,17.13,73996.0,-0.71,-1.71,-1.43,0,*65
1500152476.3,33553,17.13,73996.3,-0.71,-1.79,-1.55,0,*6B
1500152477.54,33554,17.13,73998.3,-0.71,-1.79,-1.47,0,*6F
1500152478.78,33555,17.19,74002.0,-0.71,-1.79,-1.47,0,*6E
1500152480.0,33556,17.13,73996.3,-0.71,-1.71,-1.55,0,*66
1500152481.23,33557,17.13,73996.3,-0.71,-1.79,-1.47,0,*6C
1500152482.44,33558,17.13,73996.5,-0.71,-1.79,-1.55,0,*60
1500152483.68,33559,17.13,73998.5,-0.71,-1.79,-1.47,0,*62
1500152484.95,33560,17.13,74000.0,-0.71,-1.83,-1.47,0,*6D
1500152486.21,33561,17.19,74002.3,-0.71,-1.83,-1.47,0,*6C
1500152487.45,33562,17.13,73998.5,-0.71,-1.91,-1.59,0,*63
1500152488.68,33563,17.13,74002.0,-0.71,-1.83,-1.59,0,*61
1500152489.92,33564,17.13,74000.3,-0.71,-1.79,-1.47,0,*6C
1500152491.16,33565,17.13,74002.3,-0.71,-1.79,-1.47,0,*6D
1500152492.38,33566,17.13,74002.8,-0.71,-1.71,-1.55,0,*65
1500152493.61,33567,17.13,74002.3,-0.71,-1.79,-1.47,0,*6F
1500152494.85,33568,17.13,74002.3,-0.71,-1.95,-1.59,0,*6D
1500152496.08,33569,17.13,74004.0,-0.71,-1.91,-1.55,0,*64
1500152497.35,33570,17.13,74002.5,-0.71,-1.83,-1.47,0,*6C
1500152498.58,33571,17.13,74000.5,-0.71,-1.83,-1.55,0,*6E
1500152499.82,33572,17.13,74000.5,-0.71,-1.83,-1.55,0,*6D
1500152501.04,33573,17.13,74006.0,-0.71,-1.71,-1.59,0,*6D
1500152502.25,33574,17.13,74006.3,-0.73,-1.83,-1.71,0,*6F
1500152503.5,33575,17.13,74008.8,-0.71,-2.07,-1.79,0,*6B
1500152504.74,33576,17.13,74002.5,-0.71,-2.03,-1.79,0,*6C
1500152505.95,33577,17.13,74004.0,-0.73,-2.07,-1.75,0,*67
1500152507.19,33578,17.13,74000.3,-0.71,-2.07,-1.79,0,*66
1500152508.38,33579,17.13,74002.5,-0.73,-2.19,-1.75,0,*66
1500152509.57,33580,17.13,73998.8,-0.73,-2.19,-1.71,0,*64
1500152510.77,33581,17.13,74002.5,-0.71,-2.15,-1.59,0,*61
1500152511.99,33582,17.13,74000.0,-0.71,-2.15,-1.71,0,*68
1500152513.21,33583,17.13,74002.5,-0.71,-2.31,-1.67,0,*68
1500152514.4,33584,17.13,73996.0,-0.73,-2.35,-1.71,0,*6E
1500152515.6,33585,17.13,74000.3,-0.71,-2.19,-1.59,0,*69
1500152516.81,33586,17.13,74000.5,-0.71,-2.19,-1.59,0,*6A
1500152518.0,33587,17.13,74000.3,-0.73,-2.19,-1.63,0,*60
1500152519.2,33588,17.13,73998.0,-0.71,-2.15,-1.59,0,*68
1500152520.44,33589,17.13,73998.3,-0.71,-2.07,-1.55,0,*66
1500152521.69,33590,17.13,74000.3,-0.71,-2.07,-1.67,0,*6F
1500152522.92,33591,17.13,74000.5,-0.71,-2.07,-1.59,0,*63
1500152524.17,33592,17.13,74004.0,-0.71,-2.07,-1.67,0,*6D
1500152525.41,33593,17.13,74000.8,-0.71,-2.07,-1.71,0,*6B
1500152526.62,33594,17.13,73996.8,-0.73,-2.19,-1.83,0,*6C
1500152527.84,33595,17.13,74000.3,-0.71,-2.15,-1.71,0,*6E
1500152529.1,33596,17.13,74000.0,-0.71,-2.07,-1.83,0,*63
1500152530.32,33597,17.13,74006.5,-0.71,-2.15,-1.71,0,*6C
1500152531.56,33598,17.13,74002.5,-0.71,-1.95,-1.71,0,*68
1500152532.83,33599,17.13,74000.0,-0.71,-2.07,-1.83,0,*6C
1500152534.01,33600,17.19,74000.5,-0.73,-2.19,-1.75,0,*6B
1500152535.25,33601,17.13,73994.8,-0.73,-2.11,-1.83,0,*6B
1500152536.49,33602,17.13,74002.0,-0.71,-2.07,-1.79,0,*68
1500152537.73,33603,17.13,74004.0,-0.73,-2.11,-1.87,0,*6D
1500152538.97,33604,17.13,74004.5,-0.71,-2.15,-2.07,0,*67
1500152540.18,33605,17.13,74000.3,-0.71,-2.27,-2.15,0,*64
1500152541.43,33606,17.13,74002.3,-0.73,-2.47,-1.99,0,*64
1500152542.7,33607,17.13,74004.5,-0.71,-2.47,-1.91,0,*6F
1500152543.93,33608,17.13,74000.8,-0.71,-2.31,-1.83,0,*62
1500152545.15,33609,17.13,73998.5,-0.73,-2.35,-1.87,0,*61
1500152546.35,33610,17.19,74004.0,-0.73,-2.39,-1.95,0,*66
1500152547.55,33611,17.13,74000.0,-0.73,-2.39,-1.87,0,*64
1500152548.77,33612,17.19,74004.8,-0.71,-2.35,-1.79,0,*68
1500152549.98,33613,17.19,74004.5,-0.73,-2.31,-1.83,0,*6A
1500152551.18,33614,17.13,74002.0,-0.73,-2.39,-1.95,0,*62
1500152552.37,33615,17.13,74000.0,-0.73,-2.35,-1.75,0,*61
1500152553.55,33616,17.13,74000.5,-0.73,-2.35,-1.71,0,*66
1500152554.74,33617,17.13,74002.8,-0.73,-2.31,-1.63,0,*60
1500152555.93,33618,17.13,74006.0,-0.73,-2.31,-1.75,0,*68
1500152557.12,33619,17.13,74002.3,-0.73,-2.35,-1.63,0,*6A
1500152558.3,33620,17.13,74000.0,-0.73,-2.23,-1.63,0,*67
1500152559.49,33621,17.19,74006.0,-0.73,-2.23,-1.71,0,*65
1500152560.71,33622,17.13,74006.3,-0.73,-1.99,-1.63,0,*67
1500152561.91,33623,17.13,74004.3,-0.73,-1.95,-1.59,0,*63
1500152563.12,33624,17.13,74002.8,-0.73,-1.95,-1.63,0,*6D
1500152564.36,33625,17.13,74002.5,-0.71,-1.83,-1.55,0,*6C
1500152565.57,33626,17.13,74004.8,-0.73,-1.95,-1.63,0,*6F
1500152566.81,33627,17.19,74004.8,-0.73,-1.99,-1.83,0,*6C
1500152568.05,33628,17.19,74006.5,-0.73,-2.11,-1.95,0,*67
1500152569.29,33629,17.19,74000.8,-0.73,-2.11,-1.83,0,*61
1500152570.53,33630,17.13,74000.5,-0.73,-2.11,-1.83,0,*69
1500152571.75,33631,17.13,74000.0,-0.73,-1.99,-1.63,0,*65
1500152572.97,33632,17.19,74000.0,-0.73,-1.99,-1.71,0,*65
1500152574.19,33633,17.13,74000.0,-0.73,-1.99,-1.71,0,*64
1500152575.44,33634,17.13,74002.3,-0.71,-2.03,-1.67,0,*66
1500152576.65,33635,17.19,74000.0,-0.73,-2.07,-1.71,0,*66
1500152577.87,33636,17.13,74000.8,-0.73,-2.07,-1.71,0,*65
1500152579.06,33637,17.19,74000.3,-0.73,-2.19,-1.71,0,*6B
1500152580.28,33638,17.13,73998.3,-0.73,-2.11,-1.63,0,*6F
1500152581.52,33639,17.13,73996.5,-0.75,-2.07,-1.63,0,*6F
1500152582.74,33640,17.13,73998.3,-0.73,-2.07,-1.71,0,*64
1500152583.96,33641,17.13,73998.5,-0.73,-1.99,-1.75,0,*65
1500152585.18,33642,17.13,73998.0,-0.73,-1.99,-1.71,0,*62
1500152586.38,33643,17.19,74000.0,-0.73,-2.19,-1.95,0,*62
1500152587.62,33644,17.13,73996.0,-0.73,-2.11,-1.83,0,*6A
1500152588.89,33645,17.13,73996.0,-0.75,-2.07,-1.87,0,*6E
1500152590.13,33646,17.13,73992.8,-0.75,-1.95,-1.71,0,*6C
1500152591.37,33647,17.13,73994.8,-0.75,-2.19,-1.95,0,*60
1500152592.64,33648,17.13,73996.0,-0.75,-2.07,-1.83,0,*67
1500152593.88,33649,17.13,73996.0,-0.75,-1.95,-1.71,0,*63
1500152595.13,33650,17.19,73998.3,-0.75,-1.99,-1.75,0,*63
1500152596.37,33651,17.13,73992.5,-0.77,-2.11,-1.99,0,*61
1500152597.64,33652,17.13,73994.0,-0.75,-2.07,-1.83,0,*6C
1500152598.89,33653,17.13,73990.5,-0.75,-1.87,-1.71,0,*6B
1500152600.13,33654,17.13,73996.3,-0.75,-1.87,-1.63,0,*6F
1500152601.38,33655,17.13,73990.5,-0.75,-1.95,-1.71,0,*6E
1500152602.59,33656,17.13,73990.5,-0.77,-2.03,-1.79,0,*6B
1500152603.83,33657,17.19,73994.5,-0.75,-1.95,-1.75,0,*68
1500152605.05,33658,17.13,73992.3,-0.77,-2.03,-1.75,0,*69
1500152606.29,33659,17.13,73992.8,-0.75,-1.87,-1.63,0,*62
1500152607.54,33660,17.13,73994.8,-0.75,-1.95,-1.71,0,*68
1500152608.78,33661,17.13,73996.0,-0.75,-1.87,-1.71,0,*6A
1500152610.03,33662,17.13,73994.3,-0.75,-1.87,-1.63,0,*6A
1500152611.27,33663,17.13,73998.0,-0.75,-1.83,-1.71,0,*6C
1500152612.52,33664,17.13,73996.5,-0.75,-1.95,-1.71,0,*6C
1500152613.76,33665,17.13,73996.3,-0.75,-1.95,-1.63,0,*6E
1500152615.01,33666,17.13,73994.8,-0.75,-1.99,-1.71,0,*62
1500152616.25,33667,17.13,73998.5,-0.75,-1.87,-1.63,0,*6F
1500152617.47,33668,17.19,74002.3,-0.77,-1.99,-1.75,0,*6A
1500152618.72,33669,17.13,74000.0,-0.75,-1.87,-1.71,0,*62
1500152619.96,33670,17.13,73998.5,-0.75,-2.19,-1.87,0,*67
1500152621.22,33671,17.13,74002.3,-0.75,-2.07,-1.87,0,*69
1500152622.44,33672,17.13,74000.0,-0.77,-2.11,-1.79,0,*6E
1500152623.71,33673,17.13,74002.5,-0.75,-2.07,-1.83,0,*6F
1500152624.93,33674,17.13,74000.5,-0.77,-1.99,-1.75,0,*67
1500152626.15,33675,17.19,74002.3,-0.77,-2.03,-1.79,0,*6A
1500152627.4,33676,17.13,74002.8,-0.75,-1.99,-1.75,0,*67
1500152628.62,33677,17.13,74000.5,-0.77,-1.99,-1.67,0,*67
1500152629.87,33678,17.13,74004.0,-0.75,-2.07,-1.71,0,*69
1500152631.11,33679,17.13,74004.5,-0.75,-1.99,-1.75,0,*68
1500152632.34,33680,17.13,74002.5,-0.77,-1.99,-1.75,0,*6C
1500152633.59,33681,17.13,74000.5,-0.75,-1.99,-1.71,0,*6B
1500152634.81,33682,17.13,74002.5,-0.77,-1.99,-1.75,0,*6E
1500152636.08,33683,17.13,74000.8,-0.75,-1.99,-1.83,0,*64
1500152637.33,33684,17.13,74000.3,-0.75,-2.07,-1.71,0,*6A
1500152638.57,33685,17.13,74000.5,-0.75,-2.19,-1.87,0,*6D
1500152639.8,33686,17.13,73998.8,-0.75,-2.19,-1.95,0,*6D
1500152641.02,33687,17.13,74000.8,-0.77,-2.11,-1.79,0,*64
1500152642.24,33688,17.13,74002.8,-0.77,-2.03,-1.79,0,*68
1500152643.48,33689,17.13,74002.3,-0.75,-1.83,-1.63,0,*6B
1500152644.67,33690,17.13,74002.5,-0.77,-1.75,-1.51,0,*69
1500152645.85,33691,17.13,74000.8,-0.77,-1.79,-1.55,0,*60
1500152647.04,33692,17.13,74000.0,-0.77,-1.79,-1.63,0,*66
1500152648.26,33693,17.13,74004.3,-0.75,-1.71,-1.59,0,*64
1500152649.47,33694,17.13,74002.5,-0.77,-2.03,-1.75,0,*69
1500152650.72,33695,17.13,74004.8,-0.75,-1.95,-1.71,0,*62
1500152651.96,33696,17.13,74002.0,-0.75,-1.95,-1.71,0,*61
1500152653.2,33697,17.19,74004.3,-0.73,-2.11,-1.83,0,*64
1500152654.42,33698,17.13,74006.0,-0.77,-2.15,-1.87,0,*6F
1500152655.63,33699,17.13,74004.3,-0.75,-2.39,-2.19,0,*66
1500152656.81,33700,17.13,74002.5,-0.77,-2.39,-2.15,0,*69
1500152658.03,33701,17.13,74000.3,-0.77,-2.15,-2.03,0,*61
1500152659.25,33702,17.13,74000.8,-0.77,-2.03,-1.79,0,*6B
1500152660.47,33703,17.13,74002.3,-0.77,-1.99,-1.79,0,*6A
1500152661.68,33704,17.13,74002.3,-0.77,-2.03,-1.79,0,*6D
1500152662.91,33705,17.13,74002.3,-0.77,-1.99,-1.67,0,*63
1500152664.12,33706,17.13,74000.3,-0.77,-1.91,-1.67,0,*68
1500152665.34,33707,17.13,74002.3,-0.77,-1.87,-1.63,0,*6A
1500152666.53,33708,17.13,74000.3,-0.77,-1.79,-1.55,0,*61
1500152667.71,33709,17.13,74006.0,-0.77,-1.79,-1.55,0,*60
1500152668.96,33710,17.13,74000.3,-0.77,-2.11,-1.91,0,*6D
1500152670.14,33711,17.13,74002.8,-0.77,-2.27,-2.15,0,*66
1500152671.35,33712,17.13,74002.8,-0.77,-2.15,-1.91,0,*6B
1500152672.6,33713,17.13,74000.0,-0.79,-2.03,-1.67,0,*6A
1500152673.85,33714,17.13,74002.3,-0.77,-2.11,-1.87,0,*6E
1500152675.06,33715,17.13,74000.8,-0.77,-2.03,-1.79,0,*6D
1500152676.3,33716,17.13,74004.5,-0.79,-1.91,-1.75,0,*64
1500152677.52,33717,17.13,74006.0,-0.79,-1.79,-1.55,0,*61
1500152678.73,33718,17.13,74004.3,-0.79,-1.67,-1.55,0,*61
1500152679.92,33719,17.13,74006.3,-0.77,-1.67,-1.55,0,*6E
1500152681.13,33720,17.13,74008.3,-0.77,-1.63,-1.47,0,*63
1500152682.32,33721,17.13,74010.3,-0.77,-1.63,-1.51,0,*65
1500152683.51,33722,17.13,74010.5,-0.77,-1.75,-1.51,0,*61
1500152684.75,33723,17.13,74008.3,-0.75,-1.83,-1.63,0,*6A
1500152685.99,33724,17.19,74008.5,-0.75,-1.87,-1.63,0,*69
1500152687.21,33725,17.13,74006.0,-0.77,-1.91,-1.67,0,*69
1500152688.42,33726,17.13,74004.0,-0.77,-1.87,-1.55,0,*6C
1500152689.61,33727,17.19,74010.3,-0.77,-1.79,-1.55,0,*6C
1500152690.79,33728,17.13,74006.5,-0.77,-1.79,-1.55,0,*63
1500152691.98,33729,17.13,74002.5,-0.77,-1.75,-1.51,0,*6A
1500152693.17,33730,17.13,74004.8,-0.77,-1.79,-1.63,0,*6F
1500152694.36,33731,17.19,74008.3,-0.77,-1.75,-1.63,0,*62
1500152695.55,33732,17.19,74004.8,-0.77,-1.75,-1.63,0,*61
1500152696.73,33733,17.13,74002.3,-0.77,-1.75,-1.55,0,*65
1500152697.92,33734,17.13,74004.3,-0.77,-1.67,-1.55,0,*61
1500152699.1,33735,17.19,74010.3,-0.77,-1.67,-1.55,0,*60
1500152700.29,33736,17.13,74006.5,-0.77,-1.67,-1.51,0,*67
1500152701.5,33737,17.13,74006.8,-0.75,-1.75,-1.59,0,*6F
1500152702.75,33738,17.13,74006.8,-0.75,-1.83,-1.51,0,*61
1500152703.97,33739,17.13,74004.5,-0.75,-1.71,-1.51,0,*6D
1500152705.19,33740,17.19,74006.3,-0.75,-1.71,-1.51,0,*63
1500152706.37,33741,17.13,74002.8,-0.77,-1.79,-1.55,0,*6C
1500152707.56,33742,17.13,74000.5,-0.77,-1.75,-1.55,0,*63
1500152708.75,33743,17.13,74004.3,-0.77,-1.79,-1.55,0,*6E
1500152709.93,33744,17.19,74006.0,-0.77,-1.75,-1.55,0,*65
1500152711.12,33745,17.13,74004.3,-0.77,-1.75,-1.55,0,*64
1500152712.3,33746,17.13,74002.3,-0.77,-1.75,-1.63,0,*62
1500152713.53,33747,17.13,74000.0,-0.75,-1.71,-1.51,0,*64
1500152714.74,33748,17.13,73998.3,-0.75,-1.75,-1.51,0,*6F
1500152715.98,33749,17.19,74004.3,-0.75,-1.83,-1.59,0,*6F
1500152717.22,33750,17.13,74002.3,-0.75,-1.83,-1.59,0,*67
1500152718.46,33751,17.13,74000.8,-0.75,-1.83,-1.51,0,*6E
1500152719.67,33752,17.13,74004.0,-0.75,-1.75,-1.59,0,*6C
1500152720.91,33753,17.13,74000.3,-0.75,-1.83,-1.59,0,*64
1500152722.16,33754,17.13,73998.5,-0.75,-1.83,-1.51,0,*6B
1500152723.37,33755,17.13,73998.3,-0.75,-1.75,-1.63,0,*62
1500152724.61,33756,17.13,73998.8,-0.75,-1.83,-1.59,0,*61
1500152725.85,33757,17.13,73996.3,-0.77,-2.11,-1.91,0,*6E
1500152727.08,33758,17.13,74002.8,-0.77,-1.99,-1.79,0,*64
1500152728.29,33759,17.13,74002.5,-0.77,-1.91,-1.75,0,*61
1500152729.53,33760,17.13,74000.3,-0.75,-1.95,-1.71,0,*69
1500152730.78,33761,17.13,74000.0,-0.77,-2.11,-1.87,0,*6C
1500152731.99,33762,17.13,74000.8,-0.77,-2.03,-1.75,0,*61
1500152733.24,33763,17.13,73996.8,-0.75,-1.95,-1.67,0,*6D
1500152734.46,33764,17.13,73998.3,-0.77,-1.87,-1.67,0,*6B
1500152735.7,33765,17.13,73994.0,-0.75,-1.87,-1.63,0,*6C
1500152736.91,33766,17.13,73996.3,-0.77,-1.91,-1.75,0,*6D
1500152738.13,33767,17.13,73996.0,-0.77,-1.87,-1.63,0,*6C
1500152739.35,33768,17.13,73998.5,-0.77,-1.99,-1.67,0,*68
1500152740.57,33769,17.13,73998.5,-0.77,-2.03,-1.75,0,*6A
1500152741.81,33770,17.13,73998.3,-0.75,-1.95,-1.75,0,*6C
1500152743.03,33771,17.13,73998.8,-0.77,-1.99,-1.75,0,*63
1500152744.24,33772,17.13,74000.5,-0.77,-2.15,-1.99,0,*65
1500152745.49,33773,17.13,73996.8,-0.77,-2.03,-1.87,0,*6C
1500152746.7,33774,17.13,73998.3,-0.77,-2.15,-1.91,0,*6B
1500152747.92,33775,17.13,73996.0,-0.77,-2.03,-1.79,0,*6B
1500152749.13,33776,17.13,73998.8,-0.77,-2.03,-1.75,0,*64
1500152750.35,33777,17.13,73998.3,-0.77,-1.91,-1.75,0,*6D
1500152751.59,33778,17.13,74000.3,-0.79,-1.99,-1.75,0,*64
1500152752.81,33779,17.13,74002.0,-0.77,-1.91,-1.67,0,*60
1500152754.03,33780,17.13,73998.0,-0.77,-1.87,-1.63,0,*65
1500152755.24,33781,17.13,73998.5,-0.77,-1.91,-1.67,0,*67
1500152756.47,33782,17.13,73998.3,-0.77,-1.99,-1.67,0,*6C
1500152757.68,33783,17.19,74004.8,-0.77,-1.91,-1.67,0,*65
1500152758.92,33784,17.13,74000.3,-0.79,-1.91,-1.75,0,*6F
1500152760.14,33785,17.13,73996.0,-0.77,-1.95,-1.75,0,*64
1500152761.38,33786,17.13,73994.5,-0.79,-1.91,-1.67,0,*6E
1500152762.62,33787,17.13,73998.0,-0.79,-1.91,-1.67,0,*6F
1500152763.86,33788,17.13,73996.0,-0.79,-1.91,-1.63,0,*64
1500152765.08,33789,17.13,73996.0,-0.77,-1.91,-1.67,0,*6F
1500152766.32,33790,17.13,73994.5,-0.79,-2.03,-1.75,0,*62
1500152767.55,33791,17.13,73994.5,-0.77,-1.99,-1.67,0,*6E
1500152768.79,33792,17.13,73994.5,-0.79,-1.91,-1.67,0,*6B
1500152770.02,33793,17.13,73998.5,-0.77,-1.99,-1.67,0,*6C
1500152771.23,33794,17.19,74000.0,-0.77,-2.11,-1.75,0,*6B
1500152772.45,33795,17.13,73996.3,-0.77,-2.03,-1.75,0,*69
1500152773.66,33796,17.13,73994.8,-0.77,-2.15,-1.91,0,*67
1500152774.91,33797,17.13,73994.0,-0.79,-2.27,-1.99,0,*61
1500152776.12,33798,17.13,73992.8,-0.77,-2.43,-2.03,0,*62
1500152777.34,33799,17.13,73998.0,-0.77,-2.67,-2.23,0,*67
1500152778.55,33800,17.13,73996.5,-0.79,-2.79,-2.23,0,*69
1500152779.77,33801,17.13,73998.0,-0.79,-3.03,-2.23,0,*64
1500152781.01,33802,17.13,74000.3,-0.79,-2.91,-2.11,0,*6C
1500152782.26,33803,17.13,73996.0,-0.77,-2.55,-1.99,0,*68
1500152783.52,33804,17.19,74000.0,-0.79,-2.51,-1.91,0,*6D
1500152784.73,33805,17.13,73998.3,-0.79,-2.39,-1.79,0,*64
1500152785.93,33806,17.13,73998.3,-0.81,-2.19,-1.71,0,*6A
1500152787.17,33807,17.13,74000.8,-0.79,-2.27,-1.91,0,*6F
1500152788.41,33808,17.13,73998.8,-0.79,-2.27,-1.91,0,*60
1500152789.65,33809,17.13,73996.3,-0.79,-2.43,-2.11,0,*68
1500152790.91,33810,17.13,73996.5,-0.79,-2.51,-2.11,0,*63
1500152792.15,33811,17.13,74002.5,-0.79,-2.43,-1.91,0,*6A
1500152793.42,33812,17.13,74000.0,-0.79,-2.55,-1.91,0,*6E
1500152794.66,33813,17.13,74000.5,-0.77,-2.51,-1.99,0,*6D
1500152795.88,33814,17.13,74000.8,-0.77,-2.43,-1.87,0,*66
1500152797.09,33815,17.13,74000.8,-0.81,-2.39,-1.91,0,*64
1500152798.36,33816,17.13,74000.8,-0.79,-2.51,-2.03,0,*66
1500152799.55,33817,17.13,74004.5,-0.81,-2.43,-2.15,0,*64
1500152800.73,33818,17.13,74002.0,-0.81,-2.39,-2.27,0,*67
1500152801.95,33819,17.13,74002.8,-0.81,-2.59,-2.39,0,*6F
1500152803.16,33820,17.13,74002.5,-0.79,-3.03,-2.43,0,*61
1500152804.4,33821,17.13,74000.3,-0.79,-3.43,-2.43,0,*64
1500152805.62,33822,17.13,74002.0,-0.81,-3.47,-2.39,0,*69
1500152806.81,33823,17.13,74000.8,-0.81,-3.35,-2.27,0,*62
1500152808.04,33824,17.13,74006.3,-0.81,-3.31,-2.03,0,*67
1500152809.25,33825,17.13,74002.8,-0.81,-3.15,-1.95,0,*6C
1500152810.52,33826,17.13,74002.3,-0.79,-2.67,-1.91,0,*68
1500152811.76,33827,17.19,74006.0,-0.81,-2.63,-2.03,0,*62
1500152813.03,33828,17.13,74004.0,-0.79,-2.51,-2.11,0,*68
1500152814.3,33829,17.13,74006.3,-0.79,-2.51,-2.03,0,*6A
1500152815.51,33830,17.13,74006.0,-0.79,-2.39,-1.79,0,*62
1500152816.71,33831,17.13,74006.0,-0.81,-2.43,-1.71,0,*61
1500152817.92,33832,17.13,74006.8,-0.79,-2.27,-1.63,0,*64
1500152819.16,33833,17.13,74006.5,-0.79,-2.11,-1.55,0,*65
1500152820.4,33834,17.13,74006.3,-0.79,-1.91,-1.63,0,*6C
1500152821.65,33835,17.13,74004.8,-0.79,-1.87,-1.63,0,*6A
1500152822.86,33836,17.13,74006.5,-0.79,-1.79,-1.55,0,*6D
1500152824.1,33837,17.13,74006.5,-0.79,-1.91,-1.63,0,*6F
1500152825.35,33838,17.13,74004.3,-0.79,-1.87,-1.67,0,*63
1500152826.56,33839,17.13,74008.0,-0.79,-1.79,-1.55,0,*62
1500152827.77,33840,17.13,74010.3,-0.79,-1.75,-1.63,0,*65
1500152828.99,33841,17.13,74008.3,-0.81,-1.91,-1.67,0,*6D
1500152830.18,33842,17.13,74010.8,-0.77,-1.79,-1.75,0,*62
1500152831.43,33843,17.13,74006.3,-0.79,-1.87,-1.79,0,*60
1500152832.7,33844,17.13,74010.8,-0.79,-1.99,-1.87,0,*69
1500152833.91,33845,17.13,74008.3,-0.77,-2.03,-1.75,0,*6B
1500152835.16,33846,17.13,74008.8,-0.79,-2.03,-1.67,0,*65
1500152836.41,33847,17.13,74010.0,-0.79,-2.11,-1.75,0,*64
1500152837.62,33848,17.19,74010.8,-0.77,-2.27,-1.87,0,*6D
1500152838.86,33849,17.13,74010.5,-0.77,-2.51,-2.03,0,*62
1500152840.08,33850,17.13,74006.0,-0.81,-2.43,-1.91,0,*68
1500152841.26,33851,17.13,74006.5,-0.77,-2.27,-1.79,0,*64
1500152842.48,33852,17.13,74010.5,-0.77,-2.23,-1.87,0,*62
1500152843.66,33853,17.13,74008.5,-0.77,-2.23,-1.75,0,*6E
1500152844.85,33854,17.13,74008.0,-0.77,-2.27,-1.75,0,*6D
1500152846.09,33855,17.13,74002.8,-0.75,-2.11,-1.59,0,*65
1500152847.34,33856,17.13,74004.0,-0.75,-1.99,-1.51,0,*6D
1500152848.56,33857,17.13,74004.0,-0.77,-1.99,-1.67,0,*6B
1500152849.78,33858,17.13,74006.5,-0.77,-1.91,-1.67,0,*6C
1500152851.02,33859,17.13,74008.0,-0.75,-1.83,-1.63,0,*68
1500152852.24,33860,17.13,74006.5,-0.77,-1.87,-1.67,0,*60
1500152853.46,33861,17.13,74006.0,-0.77,-2.03,-1.79,0,*61
1500152854.67,33862,17.13,74006.0,-0.77,-1.91,-1.79,0,*6A
1500152855.92,33863,17.13,74004.5,-0.75,-1.95,-1.71,0,*65
1500152857.13,33864,17.13,74008.8,-0.77,-1.91,-1.75,0,*60
1500152858.35,33865,17.13,74006.5,-0.77,-1.99,-1.75,0,*69
1500152859.57,33866,17.19,74008.5,-0.77,-2.03,-1.79,0,*66
1500152860.79,33867,17.13,74004.0,-0.77,-2.03,-1.67,0,*68
1500152862.0,33868,17.13,74006.0,-0.77,-1.95,-1.75,0,*68
1500152863.22,33869,17.13,74006.3,-0.77,-1.91,-1.67,0,*6E
1500152864.46,33870,17.19,74008.5,-0.75,-1.95,-1.71,0,*67
1500152865.71,33871,17.13,74008.5,-0.75,-1.99,-1.51,0,*68
1500152866.94,33872,17.13,74004.8,-0.75,-1.95,-1.59,0,*6F
1500152868.16,33873,17.13,74008.3,-0.77,-2.03,-1.63,0,*69
1500152869.38,33874,17.13,74010.3,-0.77,-2.03,-1.63,0,*6E
1500152870.6,33875,17.13,74006.3,-0.77,-1.99,-1.63,0,*6F
1500152871.82,33876,17.13,74006.5,-0.77,-2.03,-1.67,0,*68
1500152873.05,33877,17.13,74006.0,-0.75,-1.95,-1.59,0,*6A
1500152874.27,33878,17.13,74008.0,-0.77,-1.99,-1.63,0,*62
1500152875.52,33879,17.13,74006.5,-0.75,-1.95,-1.71,0,*6E
1500152876.76,33880,17.13,74006.3,-0.75,-1.95,-1.71,0,*68
1500152877.98,33881,17.13,74004.8,-0.77,-2.11,-1.75,0,*60
1500152879.2,33882,17.13,74002.0,-0.77,-2.03,-1.79,0,*6C
1500152880.42,33883,17.13,74002.3,-0.77,-1.99,-1.63,0,*66
1500152881.66,33884,17.13,74004.5,-0.75,-1.87,-1.51,0,*6D
1500152882.87,33885,17.13,74006.8,-0.77,-1.87,-1.63,0,*6F
1500152884.11,33886,17.13,74004.8,-0.75,-1.83,-1.59,0,*63
1500152885.35,33887,17.13,74006.8,-0.75,-1.83,-1.55,0,*6E
1500152886.6,33888,17.13,74004.8,-0.75,-1.83,-1.59,0,*6D
1500152887.81,33889,17.19,74008.3,-0.77,-1.87,-1.55,0,*66
1500152889.05,33890,17.13,74004.5,-0.75,-1.83,-1.63,0,*6D
1500152890.24,33891,17.13,74006.5,-0.77,-1.79,-1.55,0,*6E
1500152891.46,33892,17.13,74002.3,-0.77,-1.87,-1.67,0,*6D
1500152892.67,33893,17.13,74004.3,-0.75,-1.75,-1.51,0,*66
1500152893.89,33894,17.13,74000.3,-0.77,-1.99,-1.75,0,*67
1500152895.11,33895,17.13,74000.5,-0.77,-2.03,-1.67,0,*65
1500152896.34,33896,17.13,74004.0,-0.77,-1.99,-1.67,0,*66
1500152897.58,33897,17.13,74004.3,-0.75,-1.87,-1.63,0,*6E
1500152898.8,33898,17.13,74006.5,-0.77,-1.99,-1.75,0,*6B
1500152900.02,33899,17.13,74006.0,-0.77,-1.87,-1.67,0,*66
1500152901.26,33900,17.13,74006.0,-0.75,-1.83,-1.59,0,*6C
1500152902.5,33901,17.13,74002.8,-0.75,-1.95,-1.75,0,*64
1500152903.75,33902,17.13,74004.5,-0.75,-2.07,-1.71,0,*6B
1500152904.99,33903,17.13,74004.8,-0.75,-2.07,-1.71,0,*6A
1500152906.21,33904,17.13,74006.8,-0.77,-2.03,-1.75,0,*6F